Regional Weather Roundup
Issued by NWS

Home | Current Version | Previous Version | Graphics & Text | Print | Product List | Glossary On
Versions: 1 2 3 4 5 6 7 8 9 10 11 12 13 14 15 16 17 18 19 20 21 22 23 24 25 26 27 28 29 30 31 32 33 34 35 36 37 38 39 40 41 42 43 44 45 46 47 48 49 50
000
ASUS43 KLSX 230959
RWRMO

WEATHER SUMMARY FOR MISSOURI
NATIONAL WEATHER SERVICE SPRINGFIELD MO
500 AM CDT WED APR 23 2014

NOTE: "FAIR" INDICATES FEW OR NO CLOUDS BELOW 12,000 FEET WITH NO
       SIGNIFICANT WEATHER AND/OR OBSTRUCTIONS TO VISIBILITY.
       CURRENT SKY AND/OR WEATHER CONDITIONS ARE NOT AVAILABLE FOR
       CHILLICOTHE AND FARMINGTON.

MOZ001>031-035>038-043-044-053-054-231100-
...NORTHERN AND WESTERN MISSOURI...

CITY           SKY/WX    TMP DP  RH WIND       PRES   REMARKS
KANSAS CTY INT CLOUDY    55  34  45 SE14      29.99S
KANSAS C DTWN  CLOUDY    57  34  41 E9        29.99S
LEE`S SUMMIT   CLOUDY    54  34  46 SE8       30.01R
ST JOSEPH      CLOUDY    55  35  47 SE10      29.97F
KIRKSVILLE     PTCLDY    44  31  60 E7        30.04S

$$
MOZ066>068-077>081-088>096-101>105-231100-
...SOUTHWEST MISSOURI...

CITY           SKY/WX    TMP DP  RH WIND       PRES   REMARKS
SPRINGFIELD    CLEAR     50  34  54 SE10      30.00R
JOPLIN         CLEAR     51  36  56 SE8       29.96F

$$
MOZ032>034-039>042-045>050-055>058-069>072-231100-
...CENTRAL MISSOURI...

CITY           SKY/WX    TMP DP  RH WIND       PRES   REMARKS
COLUMBIA       CLEAR     46  34  62 E6        30.03R
JEFFERSON CITY CLEAR     42  37  82 CALM      30.04R
ROLLA          CLEAR     46  32  58 E6        30.01R
SEDALIA        PTCLDY    49  38  65 SE8       30.01F
OSAGE BEACH    CLEAR     46  34  61 CALM      30.04R

$$
MOZ051-052-059>065-231100-
...EAST CENTRAL MISSOURI...

CITY           SKY/WX    TMP DP  RH WIND       PRES   REMARKS
ST LOUIS INTL  PTCLDY    50  32  50 E7        30.06R
SPIRIT OF STL  CLEAR     40  36  86 CALM      30.05R
ST CHARLES     CLEAR     46  35  65 E9        30.06R

$$
MOZ072>076-082>087-097>100-106>115-231100-
...SOUTH CENTRAL AND SOUTHEAST MISSOURI...

CITY           SKY/WX    TMP DP  RH WIND       PRES   REMARKS
CAPE GIRARDEAU CLEAR     42  39  89 CALM      30.04R
FARMINGTON     CLEAR     41  37  87 CALM      30.07R
POPLAR BLUFF   CLEAR     46  40  79 NW3       30.03R
WEST PLAINS    CLEAR     48  31  51 E3        30.04R

$$



USA.gov is the U.S. government's official web portal to all federal, state and local government web resources and services.